Regional Weather Roundup
Issued by NWS Pendleton, OR

Home | Current Version | Previous Version | Text Only | Print | Product List | Glossary On
Versions: 1 2 3 4 5 6 7 8 9 10 11 12 13 14 15 16 17 18 19 20 21 22 23 24 25 26 27 28 29 30 31 32 33 34 35 36 37 38 39 40 41 42 43 44 45 46 47 48 49 50
000
ASUS46 KPDT 221025
RWRPDT
PENDLETON REGIONAL WEATHER ROUNDUP
NATIONAL WEATHER SERVICE PENDLETON OREGON
200 AM PST MON JAN 22 2018

NOTE: FAIR INDICATES FEW OR NO CLOUDS BELOW 12,000 FEET WITH NO
SIGNIFICANT WEATHER AND/OR OBSTRUCTIONS TO VISIBILITY.

# INDICATES UNOFFICIAL STATION AND DATA

WAZ520-221110-
EAST SLOPES OF WASHINGTON CASCADES

CITY            SKY/WX      TMP DP  RH  WIND    PRES   REMARKS
#BULLFROG       N/A         27  27  100 CALM    N/A
#CLE ELUM HS    N/A         28  26  92  CALM    30.01R
#EASTON DOT     N/A         30  29  96  CALM    N/A
#ELK HTS DOT    N/A         28  28  100 CALM    N/A
#GLENWOOD       N/A         34  33  96  SW1     30.14R
#NELSON 3SW     N/A         25  24  96  CALM    30.33R
#NILE           N/A         28  27  96  CALM    29.38R
#TEANAWAY 4NE   N/A         27  26  96  CALM    N/A
#TROUT LAKE 1NE N/A         32  31  96  CALM    30.16R
#TROUT LAKE 1E  N/A         30  29  96  CALM    30.11R
$$

WAZ521-221110-
SIMCOE HIGHLANDS

CITY            SKY/WX      TMP DP  RH  WIND    PRES   REMARKS
#BICKLETON HS   N/A         33  28  82  SW7     29.68R
#CENTERVILLE 1SWN/A         30  27  88  CALM    30.11S
#GOLDENDALE 1NE N/A         30  23  75  CALM    N/A
#GOLDENDALE 4W  N/A         31  28  88  CALM    30.14R
#GOODNOE HILLS  N/A         36  32  85  NW9     30.02R
#LYLE 6NE       N/A         36  35  96  CALM    30.15R
#PITT 4SE       N/A         32  31  96  CALM    30.17R
$$

WAZ026-221110-
KITTITAS VALLEY

CITY            SKY/WX      TMP DP  RH  WIND    PRES   REMARKS
#ELLENSBURG CWU N/A         30  29  96  CALM    30.05R
#ELLENSBURG 3NE N/A         24  22  92  CALM    28.13R
#ELLENSBURG 1E  N/A         25  24  96  CALM    30.16R
#KITTITAS 3S    N/A         22  20  92  CALM    30.11R
#MANASTASH RDG  N/A         33  33  100 CALM    N/A
#ROCKY CYN DOT  N/A         28  28  100 W5      N/A
#RYEGRASS DOT   N/A         29  28  96  CALM    N/A
$$

WAZ027-221110-
YAKIMA VALLEY

CITY            SKY/WX      TMP DP  RH  WIND    PRES   REMARKS
SUNNYSIDE AP    PTCLDY      32  28  85  N6      30.10R
YAKIMA AIRPORT  CLEAR       27  24  88  W6      30.09R
YAKIMA-VAGABOND CLEAR       28  26  92  SW3     30.06R
#DONALD 2NE     N/A         38  18  44  NW3     28.94R
#GRANDVIEW      N/A         32  27  82  CALM    30.13R
#MABTON         N/A         40  32  73  CALM    30.07S
#MOXEE 2E       N/A         28  N/A N/A W2      30.08R
#NACHES 2SW     N/A         30  28  92  NW1     30.03S
#OUTLOOK DOT    N/A         32  30  92  CALM    30.05R
#PARKER DOT     N/A         40  31  70  CALM    30.08R
#TERRACE HTS    N/A         29  27  92  CALM    30.08R
#TOPPENISH      N/A         32  28  85  CALM    30.02R
#I82 S UMTANUM RN/A         30  27  88  N1      N/A
#UNION GAP DOT  N/A         29  27  92  N1      30.12R
#W YAKIMA       N/A         30  28  92  NW3     30.13R
#WHITE SWAN 5E  N/A         38  31  76  CALM    30.11R
#WILEY CITY 3W  N/A         29  24  81  CALM    30.04R
#ZILLAH DOT     N/A         33  28  82  N3      N/A
$$

WAZ028-221110-
LOWER COLUMBIA BASIN...WASHINGTON

CITY            SKY/WX      TMP DP  RH  WIND    PRES   REMARKS
HANFORD         MOCLEAR     38  29  70  NE2     30.07R
PASCO           MOCLDY      40  33  76  S10     30.11R
PROSSER AWOS    N/A         30  30  100 N5      30.13R
RICHLAND AWOS   MOCLDY      41  34  76  CALM    30.12R
#BENTON CITY    N/A         36  31  82  CALM    30.01R
#CONNELL 5N     N/A         33  31  92  S1      30.11R
#CONNELL 5NW    N/A         34  32  92  S3      30.06R
#ELTOPIA 6NW    N/A         37  34  89  CALM    29.05R
#KAHLOTUS       N/A         38  34  85  W13     30.11R WCI 30
#KENNEWICK 3S   N/A         40  35  82  SW7     30.11S
#PATERSON       N/A         36  34  92  CALM    30.11S
#PROSSER DOT    N/A         34  32  92  CALM    30.10R
#SAGEMOOR 2W    N/A         38  33  82  CALM    29.99R
#TOUCHET 2S     N/A         43  36  76  CALM    30.11R
#WEST PASCO     N/A         37  32  82  CALM    30.11R
$$

WAZ029-221110-
FOOTHILLS OF THE BLUES...WASHINGTON

CITY            SKY/WX      TMP DP  RH  WIND    PRES   REMARKS
WALLA WALLA AP  CLOUDY      42  35  76  S5      30.10R
#CLYDE 6NW      N/A         38  33  82  S9      30.10R
#LOWDEN 2SE     N/A         42  37  82  CALM    30.09R
#PLEASANT VIEW 1N/A         35  32  89  S9      30.14R
#PRESCOTT       N/A         40  36  85  CALM    30.11R
#WHITMAN COLLEGEN/A         45  36  70  S3      30.18R
#WAITSBURG 5S   N/A         39  35  85  S1      30.21R
#WAITSBURG 6SSE N/A         41  34  76  CALM    29.95R
#WAITSBURG 8N   N/A          0  N/A N/A S8      29.79S
#WALLA WALLA 5E N/A         44  37  76  W1      N/A
#WHITMAN MISSIONN/A         43  37  79  CALM    30.14R
$$

WAZ030-221110-
BLUE MOUNTAINS...WASHINGTON

CITY            SKY/WX      TMP DP  RH  WIND    PRES   REMARKS
#DIXIE 5SE      N/A         37  33  85  S8      29.97R
$$

ORZ009-041-WAZ024-221110-
COLUMBIA RIVER GORGE

CITY            SKY/WX      TMP DP  RH  WIND    PRES   REMARKS
HOOD RIVER AP   FOG         34  34  100 CALM    30.16R VSB<1/4
THE DALLES AP   MOCLDY      34  32  92  SW3     30.16R
#ARLINGTON AIRPON/A         37  34  89  W3      30.16R
#ARLINGTON HS   N/A         35  30  82  CALM    30.05R
#CELILO DOT     N/A         38  33  82  S6      N/A
#LYLE           N/A         37  35  92  NE9     30.17R
#MARYHILL       N/A         34  33  96  N2      29.98S
#MURDOCK        N/A         35  34  96  CALM    30.14R
#RUFUS DOT      N/A         38  N/A N/A SE2     N/A
#SMITHVILLE     N/A         35  34  96  CALM    30.12R

$$

ORZ510-221110-
NORTH CENTRAL OREGON

CITY            SKY/WX      TMP DP  RH  WIND    PRES   REMARKS
#ANTELOPE       N/A         31  28  88  CALM    30.03R
#COW CYN RST AREN/A         34  N/A N/A CALM    N/A
#DUFUR          N/A         28  26  92  CALM    30.11R
#DUFUR 9E       N/A         36  30  79  SW12    30.18R WCI 28
#GRASS VALLEY 1SN/A         33  29  85  CALM    30.09S
#KENT DOT       N/A         33  23  66  SW8     N/A
#MAUPIN SCHOOL  N/A         36  29  75  CALM    30.17R
#SHANIKO 5WSW   N/A         33  N/A N/A SW1     N/A
#TYGH VALLEY 2NEN/A         33  29  85  CALM    30.15R
#WAPANITIA AIRPON/A         34  29  82  W2      30.16R
#WASCO DOT      N/A         30  29  96  CALM    N/A
#WASCO 5NE      N/A         33  24  69  SW1     30.14R
$$

ORZ511-221110-
CENTRAL OREGON

CITY            SKY/WX      TMP DP  RH  WIND    PRES   REMARKS
BEND AIRPORT    CLOUDY      36  32  85  SW3     30.12R
PRINEVILLE AP   MOCLDY      34  34  100 NW3     30.11R
REDMOND AIRPORT CLOUDY      35  32  89  N8      30.10R
#ASHWOOD SCHOOL N/A         34  31  89  CALM    30.07R
#BEND 1SW       N/A         33  30  89  CALM    N/A
#BEND-AWBREY    N/A         33  32  96  NW1     30.20R
#BEND-KIM LN    N/A         32  31  96  SW2     30.12R
#CULVER         N/A         35  28  75  SW1     30.00R
#CULVER 8W      N/A         34  21  58  SW2     30.10R
#LAKE BILLY CHINN/A         36  N/A N/A E3      30.19R
#POWELL BUTTE   N/A         34  32  92  S1      30.04R
#PRINEVILLE     N/A         35  33  92  CALM    30.25R
#PRINEVILLE 3N  N/A         34  31  89  E3      30.16R
#WARM SPRINGS   N/A         32  29  89  CALM    30.01R

$$


ORZ509-221110-
EAST SLOPES OF OREGON CASCADES

CITY            SKY/WX      TMP DP  RH  WIND    PRES   REMARKS
SISTERS AWOS    N/A         36  28  72  W13     30.05R WCI 27
#BLUE BOX PASS  N/A         30  N/A N/A CALM    N/A
#CAMP SHERMAN   N/A         28  25  88  CALM    30.23S
#LA PINE DOT    N/A         32  31  96  S2      N/A
#LA PINE 4NW    N/A         30  27  88  CALM    30.24R
#LAVA BUTTE DOT N/A         30  28  92  CALM    N/A
#SISTERS ODOT   N/A         34  26  72  W2      N/A
#SISTERS 3N     N/A         30  23  75  CALM    30.14R
#SUNRIVER       N/A         31  29  92  CALM    30.22R
#TUMALO 3W      N/A         32  31  96  E1      30.05R
#WANOGA BUTTE D N/A         23  23  100 CALM    N/A

$$

ORZ044-221110-
LOWER COLUMBIA BASIN...OREGON

CITY            SKY/WX      TMP DP  RH  WIND    PRES   REMARKS
HERMISTON       MOCLDY      35  33  92  S7      30.11R
#BOARDMAN SCHOOLN/A         37  33  85  N1      30.12R
#BOARDMAN 8SW   N/A         36  32  85  S3      30.14R
#I-84 EX 198 DOTN/A         41  34  76  E6      N/A
#IONE SCHOOL    N/A         40  24  52  CALM    30.15R
#UMATILLA       N/A         39  33  79  CALM    30.06R
$$

ORZ507-221110-
NORTHERN FOOTHILLS OF THE BLUES

CITY            SKY/WX      TMP DP  RH  WIND    PRES   REMARKS
PENDLETON AIRPT MOCLDY      39  33  79  W10     30.09R
#ADAMS 3WNW     N/A         38  34  85  CALM    30.14R
#ATHENA         N/A         39  34  82  CALM    30.16R
#HELIX SCHOOL   N/A         38  35  89  CALM    30.15R
#HELIX 3N       N/A         38  35  89  SE2     30.09R
#HOLDMAN 5SE    N/A         36  32  85  SW2     30.09R
#HOLDMAN 6E     N/A         37  34  89  CALM    29.94R
#M-F GROVE ELEM N/A         43  33  67  CALM    30.06S
#M-FREEWATER 5SEN/A         42  34  73  CALM    30.09R
#PENDLETON DNTN N/A         40  32  73  CALM    N/A
#PDT AQUATIC CTRN/A         39  32  76  CALM    30.09R
#PDT SUNRIDGE   N/A         39  35  85  CALM    30.12R
#PENDLETON 6SE  N/A         40  34  79  SW6     30.09R
#PENDLETON 7NW  N/A         39  33  79  SW3     29.97S
#PILOT ROCK 1S  N/A         41  31  67  CALM    30.10R
#PILOT ROCK     N/A         40  33  76  CALM    30.11R
#TUTUILLA       N/A         38  33  82  CALM    30.16R
#UMAPINE 2E     N/A         42  36  79  CALM    30.08R

$$

ORZ508-221110-
SOUTHERN FOOTHILLS OF THE BLUES

CITY            SKY/WX      TMP DP  RH  WIND    PRES   REMARKS
LEXINGTON       CLOUDY      39  34  82  S3      30.14R
#AJAX           N/A         36  23  59  CALM    30.23S
#CONDON 5W      N/A         34  25  69  W12     30.04R WCI 25
#HEPPNER EOC    N/A         39  33  79  SW5     30.06R
#HEPPNER 4NE    N/A         37  32  82  W7      30.13R
#LEXINGTON 2SE  N/A         39  32  76  CALM    30.06R
#MIKKALO        N/A         37  27  67  S6      30.20R
#OLEX 4N        N/A         37  32  82  SW8     30.08S
#RUGGS 5NE      N/A         35  33  92  SW3     30.20S
#RUGGS 2SW      N/A         37  31  79  W6      30.16S

$$

ORZ502-503-221110-
BLUE MOUNTAINS

CITY            SKY/WX      TMP DP  RH  WIND    PRES   REMARKS
MEACHAM         MXD PCPN    32  29  89  CALM    30.05R
#BATTLE MTN DOT N/A         30  29  96  S6      N/A
#GRANITE        N/A         28  23  81  CALM    29.65F
#HARDMAN 10S    N/A         30  30  100 CALM    30.31R
#LADD CYN SMT   N/A         32  31  96  E12     N/A    WCI 23
#LADD CREEK ODOTN/A         34  30  85  S7      N/A
#LONG CREEK HS  N/A         33  33  100 CALM    30.09R
#N POWDER DOT   N/A         33  31  92  SE12    N/A    WCI 24
#PIKES PEAK     N/A         35  29  78  S13     27.99S WCI 26
#SUMMERVILLE 5NWN/A         32  30  92  CALM    28.03R
#TOLLGATE       N/A         28  27  96  CALM    30.06R
#TROY SCHOOL    N/A         35  33  92  CALM    30.03R
#UKIAH          N/A         31  29  92  CALM    30.12R
#WESTON 4E      N/A         33  32  96  SE2     30.12S
$$

ORZ505-221110-
JOHN DAY BASIN

CITY            SKY/WX      TMP DP  RH  WIND    PRES   REMARKS
JOHN DAY        LGT RAIN    36  32  85  CALM    30.09R
#ANTELOPE 9ESE  N/A         35  32  89  CALM    N/A
#MITCHELL 8NW   N/A         34  31  89  CALM    30.22R
#MONUMENT HS    N/A         34  31  89  CALM    30.06R
#MT. VERNON 5SE N/A         34  30  85  CALM    30.02R
#SPRAY SCHOOL   N/A         36  N/A N/A CALM    N/A
#WINLOCK        N/A         46  46  100 CALM    30.05R
$$

ORZ506-221110-
OCHOCO AND JOHN DAY HIGHLANDS

CITY            SKY/WX      TMP DP  RH  WIND    PRES   REMARKS
#HORSE RIDGE DO N/A         33  28  82  E6      N/A
#IZEE 6NW       N/A         32  31  96  CALM    N/A
#PAULINA ODOT   N/A         33  32  96  SW3     N/A
#PINE MTN OBS   N/A         25  24  96  CALM    N/A
#PRAIRIE CITY   N/A         34  29  82  CALM    30.23R
#SENECA         N/A         31  N/A N/A N5      N/A
#SENECA 9NW     N/A         30  29  96  CALM    30.24R
$$

ORZ049-221110-
GRANDE RONDE VALLEY

CITY            SKY/WX      TMP DP  RH  WIND    PRES   REMARKS
LA GRANDE       LGT RAIN    36  32  85  S12     30.11R WCI 28
#COVE SCHOOL    N/A         37  32  82  CALM    30.09R
#COVE 6NW       N/A         36  32  85  S3      30.17R
#ELGIN 3N       N/A         34  27  75  S6      30.06R
#ELGIN 1E       N/A         36  30  79  SE6     N/A
#IMBLER SCHOOL  N/A         33  30  89  CALM    30.05R
#ISLAND CITY 4N N/A         41  40  96  CALM    30.16R
#LADD CYN DOT   N/A         36  33  89  S16     N/A    WCI 26
#UNION 1S       N/A         36  31  82  CALM    30.18R
$$

ORZ050-221110-
WALLOWA COUNTY

CITY            SKY/WX      TMP DP  RH  WIND    PRES   REMARKS
JOSEPH AIRPORT  PTCLDY      28  28  100 CALM    30.06R
#ENTERPRISE HS  N/A         29  27  92  CALM    30.12R
#IMNAHA SCHOOL  N/A         43  33  67  N8      30.10R
#IMNAHA 10S     N/A         31  27  85  SW2     29.99S
#JOSEPH         N/A         28  23  81  CALM    30.23R
#JOSEPH 3N      N/A         27  24  88  CALM    30.08R
#JOSEPH 3W      N/A         27  25  92  CALM    29.87R
#LOSTINE        N/A         28  26  92  CALM    30.04R
#LOSTINE 3SE    N/A         28  27  96  CALM    30.11R
#MT HOWARD 8000 N/A         20  16  84  SW7     29.90R
#PROMISE 1S     N/A         31  29  92  CALM    30.23F
#WALLOWA LAKE   N/A         31  26  81  CALM    30.04S
#WALLOWA SCHOOL N/A         29  28  96  CALM    30.06R



$$



USA.gov is the U.S. government's official web portal to all federal, state and local government web resources and services.